Location: *
(51.8167°N, 12.5000°E)
Time: 22:19:36
(UTC+00:00)

USA 234 - Pass Details

Date: 16 September 2019
Orbit: 1103 x 1105 km, 123.0° (Epoch: 06 October)

Event Time Altitude Azimuth Distance (km) Brightness Sun altitude
Exits shadow 21:42:12 71° 279° (W) 1,164 3.3 -32.9°
Drops below altitude 10° 21:48:00 10° 299° (WNW) 2,968 6.1 -33.3°
Sets 21:50:29 0° 300° (WNW) 3,928 6.8 -33.5°
